Regional Weather Roundup
Issued by NWS Charleston, SC

Current Version | Previous Version | Graphics & Text | Print | Product List | Glossary On
Versions: 1 2 3 4 5 6 7 8 9 10 11 12 13 14 15 16 17 18 19 20 21 22 23 24 25 26 27 28 29 30 31 32 33 34 35 36 37 38 39 40 41 42 43 44 45 46 47 48 49 50
000 ASUS42 KCHS 252310 RWRCHS REGIONAL WEATHER ROUNDUP NATIONAL WEATHER SERVICE CHARLESTON SC 600 PM EST SUN JAN 25 2015 NOTE: "FAIR" INDICATES FEW OR NO CLOUDS BELOW 12,000 FEET WITH NO SIGNIFICANT WEATHER AND/OR OBSTRUCTIONS TO VISIBILITY. NOT ALL STATIONS ARE QUALITY CONTROLLED BY THE NATIONAL WEATHER SERVICE. USE DATA WITH CAUTION...ESPECIALLY DEWPOINT OBSERVATIONS. SCZ027-030-031-034>040-042>050-260000- ...SOUTHEAST SOUTH CAROLINA... CITY SKY/WX TMP DP RH WIND PRES REMARKS N CHARLESTON PTCLDY 50 38 63 S10 29.87F WATERFRONT PRK N/A 52 N/A N/A S10 N/A MOUNT PLEASANT FAIR N/A N/A N/A S6 29.87F PINOPOLIS NOT AVBL MONCKS CORNER FAIR 52 37 58 S6 29.86S SUMMERVILLE FAIR 52 39 62 S6 29.87S BEAUFORT MCAS CLEAR 51 42 71 S5 29.87S BEAUFORT ARPT FAIR 50 43 76 S6 29.86F HILTON HEAD IS CLEAR 52 43 71 S7 29.89F WALTERBORO CLEAR 52 37 58 S6 29.86R ALLENDALE FAIR 57 32 38 CALM 29.82F ...SOUTHERN MIDLANDS AND PEE DEE... CITY SKY/WX TMP DP RH WIND PRES REMARKS GEORGETOWN NOT AVBL KINGSTREE NOT AVBL ORANGEBURG CLEAR 53 33 46 S6 29.82S BARNWELL FAIR 55 34 44 S3 29.83S AIKEN FAIR 54 32 43 S8 29.83F MANNING NOT AVBL COLUMBIA PTCLDY 55 32 41 S7 29.81R SUMTER CLEAR 53 35 50 S5 29.80F FLORENCE CLEAR 52 35 52 S6 29.82S MYRTLE BEACH CLEAR 50 37 62 S14 29.88F N MYRTLE BEACH CLEAR 50 38 63 S8 29.86F $$ GAZ063-065-086>088-099>101-113>116-118-119-134>141-150-260000- ...SOUTHEAST GEORGIA... CITY SKY/WX TMP DP RH WIND PRES REMARKS SAVANNAH ARPT PTCLDY 54 38 54 S9 29.87S HUNTER AAF CLEAR 52 44 72 S9 29.86S FORT STEWART CLEAR 57 31 37 CALM 29.86R STATESBORO CLEAR 56 33 42 S8 29.84F SYLVANIA CLEAR 56 35 44 S3 29.84F CLAXTON FAIR 55 36 47 S3 29.86S ...CSRA...CENTRAL AND FAR SOUTHEAST GEORGIA... CITY SKY/WX TMP DP RH WIND PRES REMARKS THOMSON CLEAR 57 36 44 S5 29.84S AUGUSTA-BUSH CLEAR 55 29 36 SW7 29.81F AUGUSTA-DANIEL CLEAR 58 28 32 SW8 29.82R SWAINSBORO FAIR 59 18 20 S6 29.84S VIDALIA CLEAR 55 34 44 SW9 29.85S EASTMAN FAIR 56 35 45 S5 29.86F HAZLEHURST FAIR 57 36 44 S3 29.85F ALMA CLEAR 56 33 42 S6 29.87S WAYCROSS CLEAR 58 37 44 SW6 29.88S JESUP FAIR 59 37 44 CALM 29.89R BAXLEY FAIR 59 34 38 SW5 29.87S BRUNSWICK CLEAR 55 43 62 S6 29.90S SAINT SIMONS CLEAR 54 46 74 S8 29.90F $$ SCZ027-028-034-036>038-045-046-048>050-GAZ119-141-260000- ...LAKE AND SUPPLEMENTAL COASTAL OBSERVATIONS... STATION/POSITION TIME TEMP WIND PRES WAVE SWELL AIR SEA DIR/SP/G HT/PER HT/PER/DIR (UTC) (F) (DEG/KT/KT) (MB) (FT/S) (FT/S/D) UPR LAKE MARION NOT AVBL WINYAH BAY 2200 52 160/ 8 1011.0S LAKE MURRAY 2200 55 210/ 8/ 11 1008.8R ACE BASIN NERRS NOT AVBL FORT PULASKI 2300 52 54 180/ 7/ 12 1012.1S SAPELO ISLAND 2200 56 150/ 8 1012.0F $$ ANZ835-935-AMZ111-154-330-350-352-354-370-450-454-472-260000- ...C-MAN AND BUOY OBSERVATIONS... STATION/POSITION TIME TEMP WIND PRES WAVE SWELL AIR SEA DIR/SP/G HT/PER HT/PER/DIR (UTC) (F) (DEG/KT/KT) (MB) (FT/S) (FT/S/D) BUOY 41004 2300 59 69 200/ 14/ 17 1011.6F 2/ 5 2/ 8 BUOY 41008 2300 54 55 180/ 16/ 19 1012.1F 2/ 3 FOLLY BEACH CMAN 2200 53 200/ 14/ 16 1012.6F CAPERS NEARSHORE 2200 54 230/ 12/ 14 N/A FRIPP NEARSHORE 2200 53 200/ 17/ 19 N/A STATION/POSITION TIME TEMP WIND PRES WAVE SWELL AIR SEA DIR/SP/G HT/PER HT/PER/DIR (UTC) (F) (DEG/KT/KT) (MB) (FT/S) (FT/S/D) 5E ST. MARYS GA 2300 58 N/A 2/ 3 FRYING PAN BUOY 2300 56 67 190/ 8/ 12 1012.9F 3/ 7 3/190/ 7 BUOY 41025 2300 52 69 210/ 6/ 10 1013.0R 4/ 9 3/150/ 9 CAPE LOOKOUT NC 2200 49 190/ 7/ 9 1012.8F BUOY 41002 2246 65 72 240/ 12/ 16 1013.9R 6/ 8 5/260/ 8 BUOY 41010 2300 66 76 240/ 6/ 8 1014.8F 4/ 6 3/350/ 6 ST AUGUSTINE FL 2300 57 210/ 5/ 6 1014.5R $$

USA.gov is the U.S. government's official web portal to all federal, state and local government web resources and services.